Погода в Малиновом Озере

Россия / Алтайский край     51°40′29″N   79°46′57″E
темп.,
°C
ветер,
м/с
пор.,
м/с
влажн.,
%
обл.,
%
осадки,
мм/ч
давл.,
гПа
погр.,
м
24 сентября, пт
пт2401:00+3с22895 0.1 102425
04:00+1ссз34925 0.0 102557
07:000с35945 0.0 1027103
10:00+4с357791 0.0 1029644
13:00+8ссз444886 0.0 10291529
16:00+9сз454194 0.0 10291666
19:00+7сз244398 0.0 1029153
22:00+3ююз225428 0.0 103011
25 сентября, сб
сб2501:00+3зюз245777 0.0 103090
04:00+2зюз346499 0.0 102970
07:00+1зюз35747 0.0 102990
10:00+6зюз455296 0.0 1029342
13:00+11з4536100 0.0 10271832
16:00+12з5633100 0.0 10242083
19:00+10з364065 0.0 1023186
22:00+7зюз3549100 0.0 102296
26 сентября, вс
вс2601:00+6зсз3653100 0.0 1020161
04:00+5ссз4890100 0.6 1020739
07:00+4с488673 1.0 1022594
10:00+3с566643 0.0 1023976
13:00+7с454359 0.1 10241555
16:00+8с563367 0.0 10241997
19:00+6с46395 0.0 1025566
22:00+2ссв48655 0.0 1027261
27 сентября, пн
пн2701:000св37795 0.0 1027175
04:00−2всв35875 0.0 1027100
07:00−3всв369013 0.0 1027141
10:00+2всв4866100 0.0 1026471
13:00+7всв5647100 0.0 10241175
16:00+9всв6742100 0.0 10211272
19:00+7всв584594 0.0 10201067
22:00+5всв51152100 0.0 1019756
28 сентября, вт
вт2801:00+3всв41057100 0.0 1018640
04:00+2всв5964100 0.0 1017492
07:000всв377982 0.0 1017294
10:00+3в456313 0.0 1017419
13:00+9в34376 0.0 1015796
16:00+13вюв342799 0.0 10131267
19:00+11в3634100 0.0 1011154
22:00+9в61138100 0.0 1009393